SCP
0 0 0 0 0 0 0 0 0 0 0 0 0 0 0 0 0 0 1 1 1 1 1 1 1 2 2 2 1 1 1 1 1 1 0 0 0 0 0 0 0 0 0 0
0 0 0 0 0 0 0 0 0 0 0 0 0 0 0 0 0 0 0 1 1 1 1 2 1 2 2 2 1 1 1 1 1 1 0 0 0 0 0 0 0 0 0 0
0 0 0 0 0 0 0 0 0 0 0 0 0 0 0 0 0 0 0 1 1 1 2 2 2 2 2 1 1 1 1 0 0 1 0 0 0 0 0 0 0 0 0 0
0 0 0 0 0 0 0 0 0 0 0 0 0 0 0 0 0 0 0 1 1 2 2 2 2 2 2 1 1 1 1 0 0 0 0 0 0 0 0 0 0 0 0 0
0 0 0 0 0 0 0 0 0 0 0 0 0 0 0 0 0 0 0 0 1 1 2 2 2 2 2 2 1 1 1 1 0 0 0 0 0 0 0 0 0 0 0 0
0 0 0 0 0 0 0 0 0 0 0 0 0 0 0 0 0 0 0 0 1 1 2 2 3 3 3 2 2 2 1 1 1 0 0 0 0 0 0 0 0 0 0 0
0 0 0 0 0 0 0 0 0 0 0 0 0 0 0 0 0 0 0 0 1 1 1 2 3 4 4 4 3 3 2 2 1 1 0 0 0 0 0 0 0 0 0 0
0 0 0 0 0 0 0 0 0 0 0 0 0 0 0 0 0 0 0 1 1 1 2 2 3 4 5 4 4 3 3 2 1 1 1 0 0 0 0 0 0 0 0 0
0 0 0 0 0 0 0 0 0 0 0 0 0 0 0 0 0 0 0 1 1 2 2 2 3 5 5 5 4 3 3 2 1 1 0 0 0 0 0 0 0 0 0 0
0 0 0 0 0 0 0 0 0 0 0 0 0 0 0 0 0 0 0 0 1 2 2 2 2 4 5 4 3 3 2 2 1 1 0 0 0 0 0 0 0 0 0 0
0 0 0 0 0 0 0 0 0 0 0 0 0 0 0 0 0 0 0 0 1 1 2 2 2 4 4 4 3 2 2 1 1 1 0 0 0 0 0 0 0 0 0 0
0 0 0 0 0 0 0 0 0 0 0 0 0 0 0 0 0 0 0 0 1 1 1 2 2 3 4 3 2 2 2 1 1 1 0 0 0 0 0 0 0 0 0 0
0 0 0 0 0 0 0 0 0 0 0 0 0 0 0 0 0 0 1 1 1 1 1 1 2 3 3 3 2 2 1 1 1 1 0 0 0 0 0 0 0 0 0 0
1 0 0 0 0 0 0 0 0 0 0 0 0 0 0 0 0 0 1 1 1 1 1 1 1 2 2 2 2 2 1 1 1 1 0 0 0 0 0 0 0 0 0 0
1 0 0 0 0 0 0 0 0 0 0 0 0 0 0 0 0 0 0 1 1 1 1 1 1 1 2 2 2 2 1 1 1 1 0 0 0 0 0 0 0 0 0 0
0 0 0 0 0 0 0 0 0 0 0 0 0 0 0 0 0 0 0 1 1 1 1 1 1 1 2 2 2 2 1 1 1 0 0 0 0 0 0 0 0 0 0 0
0 0 0 0 0 0 0 0 0 0 0 0 0 0 0 0 0 1 1 0 1 1 1 0 0 1 1 2 2 2 2 1 1 0 0 0 0 0 0 0 0 0 0 0
0 0 1 0 0 0 0 0 0 0 0 0 0 0 0 0 0 0 1 0 1 1 1 1 1 1 1 2 2 2 2 1 1 1 0 0 0 0 1 1 1 1 1 1
0 0 1 1 1 0 0 0 0 0 0 0 0 0 0 0 0 0 0 0 1 1 1 1 1 1 1 1 2 2 1 1 1 1 1 1 1 0 1 1 1 1 1 1
0 0 1 1 1 0 0 0 0 0 0 0 0 0 0 0 0 0 0 0 1 1 1 1 1 1 1 1 1 1 1 1 1 1 1 1 1 1 1 1 1 1 1 1
0 0 1 1 1 0 0 0 0 0 0 0 0 0 0 0 0 0 0 1 1 1 1 1 1 1 1 1 1 1 1 1 1 1 1 1 1 1 1 1 1 1 1 1
0 0 1 1 1 1 0 0 0 0 0 0 0 0 0 1 1 0 0 0 1 1 1 1 1 0 0 1 1 1 1 1 1 1 2 1 1 1 1 1 1 1 1 1
0 0 1 1 1 1 0 0 0 0 0 0 0 0 0 1 1 0 0 0 0 1 1 1 0 0 0 1 1 1 1 1 2 2 2 2 1 1 1 1 1 1 1 1
0 0 0 1 1 1 0 0 0 0 0 0 0 0 0 0 1 1 0 0 0 1 1 1 1 0 1 1 1 1 1 2 2 2 2 2 1 2 2 2 1 1 1 1
0 0 0 0 0 0 0 0 0 0 0 0 0 0 0 0 1 1 0 0 0 1 1 1 1 0 1 1 1 1 1 2 2 2 2 1 2 2 2 2 2 1 1 1
0 0 0 0 0 0 0 0 0 0 0 0 0 0 0 0 1 1 0 0 1 1 1 1 0 0 0 1 1 1 1 2 2 2 1 1 2 2 2 2 1 1 1 0
Wind_Speed
8 7 7 7 7 7 6 7 6 3 1 3 5 6 5 7 7 7 7 7 8 8 9 8 8 8 7 6 6 7 6 5 4 2 2 2 2 2 2 2 3 3 3 3
7 8 7 6 5 7 8 7 6 3 3 4 6 7 5 7 8 8 8 8 8 9 9 9 9 8 8 7 6 7 6 5 5 2 2 2 3 2 3 2 3 3 3 3
9 3 4 6 7 7 8 6 5 5 6 6 6 7 7 7 7 7 7 7 9 11 11 11 10 8 8 7 6 6 6 6 6 4 2 2 3 2 2 2 2 2 2 3
8 5 4 6 7 7 6 5 5 6 6 5 5 4 4 6 7 7 6 6 7 9 11 11 10 9 8 7 6 6 7 6 6 5 3 3 3 2 2 2 2 2 3 3
6 5 6 7 6 6 4 5 6 7 8 8 8 6 3 4 5 6 7 7 6 7 10 11 10 9 8 7 6 5 7 7 6 5 4 2 3 2 2 3 3 3 2 2
8 6 6 6 5 5 4 6 8 8 6 7 8 6 2 2 3 4 5 6 7 7 8 10 10 9 7 7 6 6 7 6 5 4 4 3 3 2 3 3 2 2 2 1
10 9 9 6 6 5 6 5 3 4 5 5 3 4 2 4 4 3 3 4 7 7 8 9 10 10 9 9 8 7 7 6 6 4 4 4 3 2 4 4 3 2 2 2
9 9 9 7 6 5 6 7 4 3 3 2 2 2 3 6 6 4 3 3 5 7 8 9 10 10 9 9 8 8 7 7 6 4 4 4 4 2 2 3 3 2 2 2
6 6 7 6 5 6 6 6 7 6 8 6 3 2 4 6 4 3 2 4 5 6 7 9 10 10 10 10 9 8 8 7 6 5 3 3 4 3 3 2 3 3 3 3
7 5 6 7 7 9 8 6 3 4 4 5 4 2 2 4 3 2 2 3 5 6 7 9 9 9 9 9 8 8 8 8 7 5 4 4 3 3 3 2 2 2 3 3
10 8 6 8 9 8 8 8 6 4 5 4 3 1 2 3 2 2 2 3 4 6 6 7 8 9 9 9 8 8 8 8 7 6 5 4 3 4 3 2 2 2 3 4
8 6 7 7 6 7 8 8 7 5 5 5 4 1 3 3 3 2 2 3 5 6 6 6 7 8 9 9 9 8 8 8 7 6 6 5 4 4 4 3 2 2 2 3
5 7 7 6 7 9 8 8 8 7 6 5 5 2 4 3 3 3 3 3 5 6 6 6 7 7 8 8 8 8 8 8 7 6 6 5 5 4 4 4 3 3 3 3
5 9 9 8 5 6 8 9 9 9 6 7 6 3 2 2 3 4 4 4 5 5 6 6 6 7 7 7 8 8 8 7 7 7 6 6 6 5 4 5 4 3 3 3
7 11 12 10 8 8 10 10 11 12 11 9 8 6 3 4 4 5 5 5 5 6 6 6 6 7 7 7 7 8 8 8 8 7 6 5 6 5 4 5 4 3 3 3
8 9 11 12 10 10 12 12 12 13 12 12 10 7 2 2 4 4 5 6 5 5 6 6 7 7 8 8 7 7 8 8 8 7 7 6 6 5 5 5 5 4 3 3
8 10 10 11 10 10 13 12 11 11 11 10 10 6 2 2 2 2 3 5 5 5 5 6 6 7 8 9 8 8 9 8 8 8 7 7 6 6 5 5 5 5 4 3
9 9 7 8 9 12 7 6 8 8 8 8 7 4 3 1 2 2 3 3 4 4 5 5 5 5 6 8 8 7 8 9 8 8 8 8 7 7 6 5 5 5 4 4
10 8 7 7 10 10 8 7 7 7 7 6 5 4 3 3 3 2 3 3 3 4 5 4 5 5 6 7 9 8 9 9 8 8 8 8 8 7 7 6 6 5 5 4
10 9 8 7 9 9 6 4 3 5 6 3 3 3 3 4 3 2 3 3 3 3 4 4 3 4 5 6 7 8 8 9 8 8 8 8 8 8 7 7 6 4 5 5
12 11 11 10 10 7 4 3 4 6 2 2 3 2 2 2 2 2 4 4 3 3 4 4 3 3 4 5 7 7 7 8 8 7 7 7 8 8 7 6 5 5 5 5
11 10 11 10 10 8 4 4 4 1 1 1 1 1 1 1 2 3 4 4 4 3 3 4 4 3 3 5 6 7 6 6 8 8 7 7 7 7 7 6 5 5 5 5
10 8 5 6 5 2 2 2 1 1 0 1 1 1 0 1 3 3 4 4 3 3 3 3 4 3 3 4 5 7 6 6 8 8 7 7 7 6 6 6 6 5 5 4
6 6 7 7 6 5 3 2 1 0 0 0 1 0 0 1 3 3 3 4 3 3 3 3 4 4 4 4 4 5 6 7 8 8 7 7 7 6 6 5 4 4 4 4
4 4 6 9 6 4 4 4 3 2 0 0 0 0 1 2 3 2 2 3 4 3 3 3 3 4 4 4 5 5 6 7 7 7 7 6 6 6 5 4 3 4 3 4
7 7 7 6 4 4 2 2 2 2 1 1 1 0 1 1 2 2 2 3 4 4 3 3 3 4 4 5 5 5 6 7 7 6 6 5 5 5 5 6 5 6 5 7
Wind_Direction
213 223 227 226 230 268 280 272 273 280 214 246 255 253 226 196 203 209 191 181 178 171 161 151 143 137 135 134 134 132 137 130 118 96 98 101 99 89 81 82 71 58 52 66
218 227 234 249 252 264 274 275 286 297 295 272 264 261 241 207 205 207 202 187 181 170 159 154 156 155 153 152 157 155 144 129 116 101 112 126 115 106 94 78 65 57 55 48
229 216 217 238 251 258 265 270 283 295 296 268 266 259 239 208 205 201 210 197 183 173 167 164 166 158 154 156 165 148 132 129 130 127 85 81 80 85 92 91 72 55 59 46
236 227 237 241 245 252 261 278 283 281 278 267 249 269 238 200 189 191 197 204 190 173 169 165 161 160 162 159 157 144 138 132 123 117 108 121 113 111 117 117 119 95 66 66
231 225 236 242 250 265 280 293 271 266 271 276 263 261 241 181 179 186 187 193 186 173 166 162 159 161 160 152 143 136 126 121 118 120 121 120 116 125 119 114 117 111 95 86
242 231 237 246 245 254 264 273 263 247 258 258 246 245 238 189 167 169 174 182 179 172 162 157 153 151 148 141 135 130 125 124 128 133 148 149 136 148 129 119 120 123 116 95
226 223 218 225 232 222 235 254 254 221 218 236 226 228 188 104 94 113 146 171 168 162 157 155 153 155 150 147 146 143 139 137 143 161 171 168 170 168 137 139 133 128 123 116
222 218 203 201 221 232 232 241 259 277 273 289 239 227 111 96 92 101 116 139 148 155 159 159 157 156 154 153 153 155 152 152 159 179 183 167 152 136 130 137 133 138 136 142
234 214 174 187 216 236 238 243 264 288 293 288 242 155 119 105 96 104 129 134 142 153 160 159 158 159 157 157 160 163 158 160 166 179 172 153 156 149 142 132 124 136 142 142
261 247 186 187 211 223 245 258 258 261 284 273 264 238 183 137 137 151 138 142 146 154 162 161 160 160 159 158 162 164 165 166 166 172 166 162 145 130 122 114 126 142 141 134
252 247 207 197 207 217 220 234 239 247 258 276 289 333 57 118 135 142 138 135 143 144 149 154 159 161 157 156 162 169 170 164 164 168 159 155 146 141 137 137 140 140 138 131
238 255 233 219 206 223 230 232 234 241 259 262 273 251 121 115 106 120 135 130 134 138 144 150 152 156 158 161 169 172 169 164 165 162 159 164 155 159 154 150 160 149 140 138
249 243 235 214 210 209 226 230 237 247 260 260 258 223 139 149 143 147 133 127 127 136 142 148 149 157 162 164 170 169 167 164 160 160 167 163 156 168 162 156 158 156 143 142
267 252 245 238 231 216 227 233 237 241 243 254 260 246 190 166 141 138 140 142 139 146 151 151 154 160 161 167 171 166 166 158 160 162 169 163 164 174 163 152 154 155 139 125
242 254 255 254 251 247 239 234 233 240 244 253 260 259 232 174 164 155 158 157 157 165 162 160 164 165 164 166 170 165 164 159 162 163 171 168 163 160 151 143 142 140 127 122
234 255 260 256 250 251 252 242 234 235 242 252 260 263 264 189 161 160 164 160 169 178 173 166 170 172 173 172 174 165 162 163 162 167 173 166 164 152 148 146 139 132 123 118
230 243 253 256 252 251 248 234 230 231 234 244 253 258 239 222 181 166 156 164 177 180 171 169 178 180 179 176 178 173 166 165 168 172 170 165 160 149 153 149 136 132 126 110
240 248 249 254 252 245 239 227 224 231 232 232 242 248 228 191 146 147 146 159 172 173 170 174 179 183 178 175 174 172 167 171 175 175 169 161 157 153 152 146 141 142 133 128
226 232 243 243 245 249 245 228 215 227 234 223 230 229 214 167 171 157 141 156 178 173 169 174 178 182 180 173 170 171 172 172 174 174 167 161 157 153 153 153 153 151 143 140
221 219 231 239 242 240 234 209 210 239 234 210 227 226 205 184 192 191 169 160 163 156 154 163 171 183 179 172 165 170 173 172 173 171 164 158 156 154 157 160 157 148 144 147
209 212 220 232 241 248 241 210 204 221 220 187 213 220 208 210 169 156 154 138 132 137 145 152 169 184 178 165 162 167 167 168 160 152 150 152 154 155 156 155 150 143 140 141
205 207 214 220 230 233 209 203 209 147 91 151 169 191 178 191 137 113 115 121 123 127 140 153 165 171 165 158 160 163 164 157 144 141 146 149 150 154 154 149 150 147 147 150
217 212 210 216 222 220 183 195 154 92 22 39 54 52 185 169 110 106 116 120 129 137 141 147 155 159 156 157 161 158 152 141 138 140 145 147 146 145 147 150 153 153 154 157
232 228 228 231 225 218 205 184 167 327 267 19 20 107 145 142 127 124 131 135 139 140 139 140 144 147 146 146 146 144 139 139 142 147 148 147 151 149 148 148 154 156 163 170
237 232 241 246 244 230 199 199 198 199 247 68 75 228 137 119 135 138 145 144 145 141 137 136 145 151 154 149 142 142 142 143 145 146 151 154 152 148 145 137 135 155 153 165
240 237 234 241 243 241 227 198 202 206 245 276 285 234 160 153 153 151 159 148 148 147 143 138 143 153 158 151 143 139 143 144 146 149 156 155 150 147 144 135 110 71 88 101